EHI
0 1 2 3 3 3 3 2 2 3 3 3 2 2 4 7 7 5 4 4 4 4 3 3 3 4 5 7 8 9 9 9 8 6 4 4 3 3 3 3 3 4 5
0 0 1 3 3 3 3 2 2 3 3 3 3 2 3 4 4 4 4 4 4 3 3 3 3 4 4 5 6 8 9 9 7 6 4 3 3 3 3 3 3 3 4
0 0 1 2 3 3 2 2 3 3 3 4 4 3 1 1 2 4 4 4 3 2 1 2 3 4 3 3 4 7 8 6 4 4 3 2 3 3 3 3 3 3 3
0 0 1 2 3 3 2 3 3 2 3 4 5 4 2 1 2 5 6 4 3 2 1 2 3 4 3 2 3 5 6 4 3 2 1 1 2 3 3 3 3 3 4
0 0 1 3 4 3 3 3 3 3 3 3 4 4 2 1 2 5 6 5 5 4 3 3 4 3 2 1 1 2 4 5 3 2 1 0 1 2 3 3 3 4 4
0 0 1 4 5 4 3 3 3 3 3 3 3 3 3 1 1 3 5 5 5 5 4 4 4 3 1 0 0 2 4 5 3 1 0 0 1 3 3 3 4 4 4
0 0 1 5 6 4 3 3 3 3 3 4 4 4 3 2 1 3 5 6 6 6 5 3 3 2 1 0 0 2 3 3 1 0 0 1 2 3 3 4 4 4 4
0 0 1 3 5 4 3 3 3 3 4 5 5 5 4 3 3 3 5 5 5 4 3 2 1 1 0 1 1 1 1 1 0 0 0 1 3 3 3 3 4 4 4
0 0 0 1 2 3 3 3 3 3 3 4 5 4 3 3 3 3 4 3 2 1 1 1 0 0 0 1 1 0 0 0 0 0 1 2 3 3 3 3 3 3 3
0 0 0 0 0 1 1 2 2 2 2 3 2 1 1 1 2 2 2 2 1 0 0 0 0 0 0 1 1 0 0 0 0 0 1 2 3 3 3 3 3 3 3
1 0 0 0 0 0 0 1 1 1 1 1 1 0 0 0 1 1 1 1 0 0 0 0 0 0 0 0 0 0 0 0 0 0 1 2 3 4 3 3 3 3 3
2 1 0 0 0 0 0 0 0 0 0 0 0 0 0 0 0 0 0 0 0 0 0 0 1 0 0 0 0 0 0 0 0 0 1 2 4 4 4 3 3 3 3
3 2 1 0 0 0 0 0 0 0 0 0 0 0 0 0 0 0 0 0 0 0 0 0 0 0 0 0 0 0 0 0 0 0 1 2 3 4 3 3 3 3 3
3 3 1 1 1 0 0 0 0 0 0 0 0 0 0 0 0 0 0 0 0 0 0 0 0 0 0 0 0 0 0 0 0 0 0 1 2 3 3 3 3 3 3
3 3 3 2 2 1 1 0 0 0 0 0 0 0 0 0 0 0 0 0 0 0 0 0 0 0 0 0 0 0 0 0 0 0 0 0 1 1 2 3 3 3 2
3 3 3 3 3 3 2 1 0 0 0 0 0 0 0 0 0 0 0 0 0 0 0 0 0 0 0 0 0 0 0 0 0 0 0 0 0 0 1 1 2 1 1
3 3 3 3 3 3 2 1 0 0 0 0 0 0 0 0 0 0 0 0 0 0 0 0 0 0 0 0 0 0 0 0 0 0 0 0 0 0 0 0 0 0 0
4 3 3 3 3 3 3 1 0 0 0 0 0 0 0 0 0 0 0 0 0 0 0 0 0 0 0 0 0 0 0 0 0 0 0 0 0 0 0 0 0 0 0
5 4 3 3 3 3 3 2 1 0 0 0 0 0 0 0 0 0 0 0 0 0 0 0 0 0 0 0 0 0 0 0 0 0 0 0 0 0 0 0 0 0 0
5 4 3 3 3 3 3 3 1 1 1 0 0 0 0 0 0 0 0 0 0 0 0 0 0 0 0 0 0 0 0 0 0 0 0 0 0 0 0 0 0 0 0
4 3 3 3 3 3 3 3 3 2 2 1 0 0 0 0 0 0 0 0 0 0 0 0 0 0 0 0 0 0 0 0 0 0 0 0 0 0 0 0 0 0 0
3 3 3 3 3 3 3 3 3 3 3 1 0 0 0 0 0 0 0 0 0 0 0 0 0 0 0 0 0 0 0 0 0 0 0 0 0 0 0 0 0 0 0
3 3 3 3 3 3 3 3 3 3 3 2 1 0 0 0 0 0 0 0 0 0 0 0 0 0 0 0 0 0 0 0 0 0 0 0 0 0 0 0 0 0 0
2 3 3 3 3 4 4 3 3 3 3 3 2 1 0 0 0 0 0 0 0 0 0 0 0 0 0 0 0 0 0 0 0 0 0 0 0 0 0 0 0 0 0
2 2 3 3 4 4 4 4 3 3 3 3 2 1 0 0 0 0 0 0 0 0 0 0 0 0 0 0 0 0 0 0 0 0 0 0 0 0 0 0 0 0 0
2 2 3 3 4 4 4 4 3 3 3 3 2 1 0 0 0 0 0 0 0 0 0 0 0 0 0 0 0 0 0 0 0 0 0 0 0 0 0 0 0 0 0
Wind_Speed
0 1 3 4 5 5 5 6 6 6 7 7 7 7 8 8 8 8 8 8 8 7 8 8 7 8 8 7 7 6 6 6 7 7 7 7 7 7 7 7 6 4 7
3 2 4 5 5 6 6 6 7 7 7 8 8 8 8 8 7 7 7 8 8 7 8 8 8 8 8 7 7 6 6 7 7 7 7 7 7 7 7 7 7 4 6
4 2 3 6 6 7 7 7 7 8 8 8 8 8 8 8 7 7 7 7 7 7 8 8 8 8 8 8 8 8 8 8 7 7 6 3 4 7 7 7 7 7 6
5 3 4 6 6 7 7 7 8 8 8 8 8 9 8 8 8 7 7 7 7 8 8 8 8 8 8 8 8 9 9 8 7 7 4 3 3 6 7 7 7 6 6
5 3 4 7 6 7 7 7 7 7 7 8 8 8 8 8 7 7 7 8 8 8 8 9 9 8 8 8 8 8 8 8 8 6 4 3 2 5 6 6 6 6 6
4 3 4 7 7 7 7 7 8 8 8 8 8 8 8 8 7 7 8 8 9 9 9 8 8 8 8 8 8 8 8 8 7 4 3 2 2 5 6 6 6 6 6
5 3 4 7 7 7 8 7 8 8 8 8 8 8 8 8 8 9 8 9 9 9 8 8 8 8 8 8 8 8 8 9 5 4 3 2 2 6 6 6 6 6 6
6 4 4 7 8 7 7 7 8 8 9 9 9 9 9 8 8 8 8 8 8 8 8 8 8 8 8 8 7 8 8 7 5 4 3 2 4 6 6 6 6 5 6
5 4 3 3 4 6 7 7 8 8 8 8 8 9 8 8 8 9 8 8 8 8 8 7 7 8 7 8 8 8 8 8 4 2 3 2 4 6 6 6 6 6 6
4 4 3 2 2 2 2 6 7 7 7 7 7 7 7 7 8 8 7 7 7 7 7 6 7 7 7 8 8 9 9 7 3 3 1 2 5 6 6 6 6 6 6
4 3 3 3 3 2 2 3 4 5 5 5 5 6 5 3 3 4 5 6 6 6 6 6 6 7 7 7 8 8 6 3 3 2 1 4 5 6 6 6 6 5 5
4 4 3 4 3 3 3 2 1 1 2 2 2 2 2 2 2 3 4 6 6 6 6 8 8 7 6 3 5 6 3 3 3 2 2 5 6 6 6 5 5 5 5
5 5 4 4 4 3 2 2 1 1 1 1 2 2 2 2 2 2 2 3 3 5 4 5 5 3 3 3 3 3 3 3 2 2 3 6 7 7 6 5 5 5 5
5 5 5 5 4 3 3 2 2 1 1 1 1 3 3 2 2 1 1 1 2 2 2 3 2 3 3 3 4 4 3 2 2 2 3 6 7 7 7 6 5 5 5
5 5 5 5 4 3 3 2 2 2 2 2 2 2 3 3 2 2 1 1 2 2 2 2 3 4 4 4 4 4 4 3 3 3 2 6 7 7 7 6 6 6 6
6 5 5 5 5 5 3 2 2 2 2 2 2 2 3 3 3 2 2 2 2 2 2 3 3 3 3 3 4 4 4 3 3 3 2 3 6 6 6 6 7 8 7
6 5 5 6 5 5 4 3 3 2 2 2 2 2 3 3 3 3 2 2 2 2 3 3 4 3 3 3 4 3 3 3 3 3 2 2 2 5 5 6 6 7 7
6 6 5 5 6 5 4 3 2 2 2 2 2 2 3 3 4 3 2 2 2 2 2 3 3 3 3 3 3 2 2 2 3 2 2 2 2 2 3 5 6 6 6
7 7 6 5 5 4 4 3 3 2 2 2 2 2 2 3 4 3 2 2 3 2 2 3 2 2 2 2 2 2 2 2 2 2 2 2 2 2 2 3 5 5 6
7 6 6 5 5 4 3 3 2 2 1 1 2 2 3 3 4 3 2 2 3 3 2 2 3 2 2 1 2 3 2 2 2 2 2 2 2 2 2 2 2 3 4
6 6 6 5 5 4 3 2 2 1 1 1 1 2 3 3 4 3 3 2 2 3 2 3 3 3 2 2 3 2 3 3 2 2 2 2 2 2 2 2 2 1 2
7 6 5 5 5 4 3 3 2 2 1 1 1 2 3 3 3 3 3 2 2 2 3 2 2 2 1 1 2 2 2 3 3 3 2 2 2 1 2 2 2 1 1
6 6 6 5 5 4 3 2 3 3 2 2 1 1 1 2 3 3 3 3 2 2 2 2 2 3 2 1 1 3 3 2 1 2 2 2 2 2 1 1 1 1 1
6 6 5 5 5 4 4 4 4 3 2 1 1 0 1 1 1 2 3 3 2 2 2 2 2 2 3 2 1 1 2 4 3 0 2 2 2 2 1 1 1 1 1
6 6 6 5 5 4 4 5 5 3 2 1 1 1 1 0 1 1 2 2 2 1 2 2 2 2 2 3 2 1 2 2 2 3 0 2 2 2 1 1 1 1 1
5 5 5 6 4 4 5 5 5 5 4 3 2 1 1 0 0 0 1 2 2 2 1 2 2 2 2 2 2 2 2 2 2 3 2 1 1 2 2 1 1 0 0
Wind_Direction
250 233 94 79 74 70 69 74 74 72 74 78 81 81 82 84 85 87 89 88 87 85 83 81 82 86 88 85 86 90 100 107 103 104 108 112 114 115 116 119 117 108 113
160 158 97 86 83 83 79 78 79 77 76 79 81 81 81 82 84 85 90 90 88 86 86 85 85 82 81 79 75 74 89 108 104 101 102 109 113 111 115 121 118 117 117
137 139 105 91 86 85 82 79 78 78 77 79 82 82 81 80 82 83 92 93 91 90 88 88 87 84 81 76 69 68 83 100 101 96 95 90 104 111 115 118 118 118 116
132 124 108 99 92 88 85 84 82 79 78 81 84 85 84 81 80 78 87 94 93 92 91 90 86 84 81 76 70 68 76 84 91 88 83 86 97 108 113 118 118 117 117
123 120 113 106 98 95 92 91 87 83 80 83 86 86 85 81 78 78 87 95 96 95 92 88 85 82 82 78 72 67 70 80 83 76 73 79 90 111 113 117 119 117 117
134 135 130 115 105 101 100 100 95 88 83 83 88 88 86 81 76 83 90 95 97 96 93 91 87 83 81 80 77 70 66 74 72 68 67 69 85 111 116 115 116 118 117
143 149 138 124 116 109 105 101 96 92 89 86 88 87 84 80 81 88 92 95 93 90 89 87 84 83 80 80 81 76 72 76 75 68 67 68 95 110 113 113 114 117 116
149 153 143 132 127 119 113 110 104 99 99 95 91 89 87 83 82 88 91 93 92 88 84 81 81 83 81 79 80 81 79 81 81 75 63 68 103 106 108 106 107 107 107
142 142 137 139 131 128 124 120 117 113 108 101 94 90 88 85 84 89 89 87 85 81 79 77 79 79 79 77 74 76 76 76 72 70 77 66 98 103 101 103 101 98 97
134 138 144 141 124 119 119 128 126 120 116 106 98 95 91 84 81 86 86 86 83 80 78 78 73 75 81 77 71 72 69 63 54 49 43 79 91 98 98 96 96 94 94
137 144 147 152 153 150 149 137 124 115 110 106 96 92 85 64 61 73 84 86 83 78 73 69 68 72 73 70 70 69 62 57 52 42 34 83 93 96 98 98 95 96 96
161 168 162 162 166 166 159 132 108 95 89 96 94 86 76 66 60 73 75 79 75 65 58 62 60 61 58 55 61 59 56 58 50 41 62 81 90 93 95 97 97 93 96
169 166 168 169 168 164 156 144 124 102 105 103 112 111 98 81 60 55 50 48 48 54 47 49 49 46 53 60 63 61 62 59 54 38 52 76 84 91 95 91 90 89 90
146 156 162 166 162 164 151 146 144 143 130 114 116 120 115 106 89 80 70 58 50 57 63 54 56 53 56 57 67 71 63 61 53 38 55 75 79 83 89 90 90 91 89
144 148 150 148 147 150 136 145 129 134 131 128 114 117 120 119 112 100 86 75 71 73 78 73 69 61 57 58 67 77 73 65 61 47 40 69 74 77 84 87 84 88 86
153 152 148 142 143 135 131 133 134 138 127 108 105 114 117 121 122 114 96 78 68 75 81 81 77 73 61 62 63 66 69 64 59 54 41 54 65 68 74 82 84 82 80
164 155 149 148 139 130 127 129 129 134 125 115 108 108 116 124 123 119 106 92 87 90 90 81 74 72 69 64 59 59 65 65 64 56 49 35 35 57 66 80 83 87 82
159 153 149 141 134 131 131 130 121 123 122 119 111 107 109 119 119 109 108 103 100 92 90 90 82 79 67 62 55 48 55 59 64 64 57 45 36 36 50 71 78 86 88
159 152 145 137 137 136 131 121 122 125 121 119 105 105 109 112 114 113 114 108 99 90 89 99 87 98 92 74 69 60 50 49 45 65 62 51 46 48 42 55 69 79 81
155 149 150 144 143 135 121 99 87 82 82 89 95 104 107 109 110 109 110 108 103 97 89 97 104 92 105 109 83 59 38 35 34 46 55 51 44 54 49 43 42 53 65
146 146 154 150 155 142 134 129 128 132 119 84 86 103 107 111 116 120 118 111 109 117 128 127 120 103 96 109 84 47 19 26 36 24 24 39 35 41 49 41 50 35 27
158 156 158 160 162 157 157 160 156 147 143 124 88 84 100 116 117 122 128 128 124 118 112 122 129 130 143 133 122 109 37 4 4 17 20 35 21 35 50 46 52 49 37
158 164 159 162 157 160 149 118 94 68 50 44 50 51 67 114 119 122 130 129 134 134 142 150 154 145 162 198 148 140 140 182 310 345 10 16 9 26 22 26 49 46 69
171 165 158 158 157 155 139 131 134 133 141 189 179 149 36 71 105 124 132 133 130 133 146 167 148 148 150 171 205 131 150 151 145 355 344 352 2 16 9 32 33 43 68
163 158 159 155 153 146 140 142 138 131 150 144 125 127 115 51 85 122 135 128 129 141 155 156 134 143 156 167 169 142 110 102 119 135 203 327 351 344 349 358 24 52 67
152 151 154 152 154 156 154 153 151 149 147 135 139 159 181 292 338 360 137 139 146 149 163 168 147 144 163 162 156 152 155 153 159 148 166 202 296 314 341 351 16 60 86